Location: Bercimuel
(41.3983°N, 3.5711°W)
Time: 11:19:26
(UTC+00:00)

NOSS 3-4 (C) - Pass Details

Date: 15 May 2026
Orbit: 773 x 1438 km, 63.4° (Epoch: 26 December)

Event Time Altitude Azimuth Distance (km) Brightness Sun altitude
Rises 22:31:42 0° 321° (NW) 3,797 7.9 -25.4°
Reaches altitude 10° 22:34:10 10° 319° (NW) 2,930 6.9 -25.6°
Maximum altitude 22:41:07 63° 240° (WSW) 1,345 4.1 -26.1°
Enters shadow 22:43:10 48° 187° (S) 1,588 4.2 -26.2°
